When you browse on this site, cookies collect data to enhance your experience and personalize the content and advertising you see.
Visit our Privacy Policy to learn more. By continuing to use the site, you agree to this use of cookies and data.

Stündliche Wetter Aachen

Heute, 9 Juli, Donnerstag

Zeit Temperatur Niederschläge Wind Luftdruck Luftfeuchtigkeit
00:00 +16°C° 0.1 mm 3 m/S 746 mmHg 97%
01:00 +15°C° 0 mm 4 m/S 746 mmHg 96%
02:00 +15°C° 0 mm 4 m/S 746 mmHg 96%
03:00 +15°C° 0 mm 4 m/S 745 mmHg 96%
04:00 +15°C° 0.2 mm 5 m/S 745 mmHg 95%
05:00 +16°C° 0.2 mm 5 m/S 745 mmHg 94%
06:00 +16°C° 0.2 mm 5 m/S 745 mmHg 94%
07:00 +17°C° 0 mm 5 m/S 745 mmHg 90%
08:00 +19°C° 0 mm 6 m/S 745 mmHg 87%
09:00 +19°C° 0 mm 6 m/S 745 mmHg 83%
10:00 +21°C° 0 mm 6 m/S 745 mmHg 75%
11:00 +23°C° 0 mm 7 m/S 745 mmHg 67%
12:00 +24°C° 0 mm 7 m/S 745 mmHg 59%
13:00 +24°C° 0 mm 7 m/S 744 mmHg 60%
14:00 +24°C° 0 mm 7 m/S 744 mmHg 61%
15:00 +24°C° 0 mm 6 m/S 744 mmHg 62%
16:00 +23°C° 0.1 mm 5 m/S 743 mmHg 68%
17:00 +21°C° 0.1 mm 5 m/S 743 mmHg 73%
18:00 +20°C° 0.1 mm 4 m/S 743 mmHg 78%
19:00 +19°C° 0 mm 3 m/S 743 mmHg 81%
20:00 +18°C° 0 mm 3 m/S 743 mmHg 84%
21:00 +17°C° 0 mm 2 m/S 743 mmHg 87%
22:00 +17°C° 0 mm 3 m/S 743 mmHg 86%
23:00 +17°C° 0 mm 3 m/S 743 mmHg 85%

Morgen, 10 Juli, Freitag

Zeit Temperatur Niederschläge Wind Luftdruck Luftfeuchtigkeit
00:00 +18°C° 0 mm 3 m/S 743 mmHg 84%
01:00 +17°C° 0 mm 3 m/S 742 mmHg 85%
02:00 +17°C° 0 mm 4 m/S 742 mmHg 86%
03:00 +17°C° 0 mm 4 m/S 742 mmHg 87%
04:00 +17°C° 0 mm 4 m/S 742 mmHg 87%
05:00 +17°C° 0 mm 4 m/S 742 mmHg 86%
06:00 +17°C° 0 mm 4 m/S 742 mmHg 85%
07:00 +17°C° 0.1 mm 4 m/S 742 mmHg 85%
08:00 +16°C° 0.1 mm 5 m/S 742 mmHg 85%
09:00 +17°C° 0.1 mm 5 m/S 742 mmHg 85%
10:00 +17°C° 0.3 mm 4 m/S 743 mmHg 86%
11:00 +17°C° 0.3 mm 3 m/S 743 mmHg 87%
12:00 +17°C° 0.3 mm 2 m/S 743 mmHg 88%
13:00 +18°C° 0.6 mm 3 m/S 744 mmHg 85%
14:00 +17°C° 0.6 mm 5 m/S 744 mmHg 82%
15:00 +19°C° 0.6 mm 6 m/S 744 mmHg 78%
16:00 +17°C° 0.2 mm 5 m/S 745 mmHg 78%
17:00 +16°C° 0.2 mm 5 m/S 745 mmHg 78%
18:00 +16°C° 0.2 mm 5 m/S 745 mmHg 78%
19:00 +14°C° 0.1 mm 3 m/S 746 mmHg 83%
20:00 +13°C° 0.1 mm 2 m/S 747 mmHg 88%
21:00 +12°C° 0.1 mm 1 m/S 748 mmHg 93%
22:00 +11°C° 0 mm 1 m/S 748 mmHg 92%
23:00 +11°C° 0 mm 1 m/S 748 mmHg 92%

übermorgen, 11 Juli, Samstag

Zeit Temperatur Niederschläge Wind Luftdruck Luftfeuchtigkeit
00:00 +10°C° 0 mm 1 m/S 749 mmHg 92%
01:00 +10°C° 0 mm 1 m/S 749 mmHg 93%
02:00 +10°C° 0 mm 1 m/S 749 mmHg 93%
03:00 +9°C° 0 mm 1 m/S 750 mmHg 93%
04:00 +10°C° 0 mm 1 m/S 750 mmHg 91%
05:00 +11°C° 0 mm 1 m/S 750 mmHg 89%
06:00 +13°C° 0 mm 1 m/S 750 mmHg 86%
07:00 +14°C° 0 mm 1 m/S 751 mmHg 78%
08:00 +16°C° 0 mm 2 m/S 751 mmHg 69%
09:00 +17°C° 0 mm 2 m/S 752 mmHg 61%
10:00 +18°C° 0 mm 2 m/S 752 mmHg 59%
11:00 +18°C° 0 mm 2 m/S 752 mmHg 57%
12:00 +19°C° 0 mm 3 m/S 752 mmHg 55%
13:00 +19°C° 0 mm 2 m/S 752 mmHg 54%
14:00 +19°C° 0 mm 2 m/S 752 mmHg 53%
15:00 +20°C° 0 mm 2 m/S 752 mmHg 52%
16:00 +19°C° 0 mm 2 m/S 752 mmHg 58%
17:00 +18°C° 0 mm 2 m/S 752 mmHg 63%
18:00 +18°C° 0 mm 2 m/S 752 mmHg 68%
19:00 +16°C° 0 mm 2 m/S 753 mmHg 74%
20:00 +14°C° 0 mm 1 m/S 753 mmHg 80%
21:00 +12°C° 0 mm 1 m/S 754 mmHg 86%
22:00 +12°C° 0 mm 1 m/S 754 mmHg 87%
23:00 +11°C° 0 mm 1 m/S 754 mmHg 88%

12 Juli, Sonntag

Zeit Temperatur Niederschläge Wind Luftdruck Luftfeuchtigkeit
00:00 +11°C° 0 mm 1 m/S 754 mmHg 89%
01:00 +11°C° 0 mm 1 m/S 754 mmHg 89%
02:00 +10°C° 0 mm 1 m/S 754 mmHg 89%
03:00 +9°C° 0 mm 0 m/S 754 mmHg 89%
04:00 +11°C° 0 mm 1 m/S 754 mmHg 86%
05:00 +13°C° 0 mm 1 m/S 754 mmHg 83%
06:00 +14°C° 0 mm 1 m/S 754 mmHg 79%
07:00 +15°C° 0 mm 1 m/S 754 mmHg 72%
08:00 +17°C° 0 mm 2 m/S 754 mmHg 65%
09:00 +19°C° 0 mm 2 m/S 755 mmHg 58%
10:00 +19°C° 0 mm 2 m/S 754 mmHg 54%
11:00 +20°C° 0 mm 2 m/S 754 mmHg 51%
12:00 +21°C° 0 mm 2 m/S 754 mmHg 47%
13:00 +21°C° 0 mm 2 m/S 754 mmHg 46%
14:00 +23°C° 0 mm 2 m/S 753 mmHg 45%
15:00 +23°C° 0 mm 2 m/S 753 mmHg 44%
16:00 +21°C° 0 mm 2 m/S 753 mmHg 50%
17:00 +20°C° 0 mm 2 m/S 752 mmHg 56%
18:00 +19°C° 0 mm 3 m/S 752 mmHg 62%
19:00 +18°C° 0 mm 2 m/S 752 mmHg 66%
20:00 +16°C° 0 mm 2 m/S 752 mmHg 69%
21:00 +14°C° 0 mm 2 m/S 752 mmHg 72%
22:00 +13°C° 0 mm 2 m/S 752 mmHg 74%
23:00 +13°C° 0 mm 2 m/S 752 mmHg 75%

13 Juli, Montag

Zeit Temperatur Niederschläge Wind Luftdruck Luftfeuchtigkeit
00:00 +12°C° 0 mm 2 m/S 752 mmHg 77%
01:00 +12°C° 0 mm 1 m/S 751 mmHg 77%
02:00 +12°C° 0 mm 1 m/S 751 mmHg 77%
03:00 +12°C° 0 mm 1 m/S 751 mmHg 77%
04:00 +13°C° 0 mm 1 m/S 750 mmHg 75%
05:00 +14°C° 0 mm 1 m/S 750 mmHg 73%
06:00 +16°C° 0 mm 1 m/S 750 mmHg 71%
07:00 +18°C° 0 mm 1 m/S 750 mmHg 65%
08:00 +20°C° 0 mm 1 m/S 750 mmHg 59%
09:00 +22°C° 0 mm 1 m/S 749 mmHg 54%
10:00 +23°C° 0 mm 1 m/S 749 mmHg 51%
11:00 +24°C° 0 mm 1 m/S 749 mmHg 48%
12:00 +24°C° 0 mm 2 m/S 748 mmHg 45%
13:00 +24°C° 0 mm 2 m/S 748 mmHg 45%
14:00 +25°C° 0 mm 2 m/S 747 mmHg 45%
15:00 +25°C° 0 mm 2 m/S 746 mmHg 45%
16:00 +24°C° 0 mm 1 m/S 746 mmHg 50%
17:00 +23°C° 0 mm 1 m/S 746 mmHg 55%
18:00 +22°C° 0 mm 1 m/S 745 mmHg 60%
19:00 +21°C° 0 mm 1 m/S 745 mmHg 61%
20:00 +20°C° 0 mm 1 m/S 745 mmHg 62%
21:00 +18°C° 0 mm 1 m/S 745 mmHg 63%
22:00 +18°C° 0 mm 1 m/S 745 mmHg 64%
23:00 +16°C° 0 mm 1 m/S 745 mmHg 65%

14 Juli, Dienstag

Zeit Temperatur Niederschläge Wind Luftdruck Luftfeuchtigkeit
00:00 +16°C° 0 mm 1 m/S 744 mmHg 65%
01:00 +16°C° 0 mm 1 m/S 744 mmHg 68%
02:00 +15°C° 0 mm 1 m/S 744 mmHg 72%
03:00 +15°C° 0 mm 1 m/S 744 mmHg 75%
04:00 +15°C° 0 mm 1 m/S 744 mmHg 78%
05:00 +16°C° 0 mm 1 m/S 744 mmHg 80%
06:00 +16°C° 0 mm 1 m/S 744 mmHg 83%
07:00 +17°C° 0.2 mm 2 m/S 744 mmHg 80%
08:00 +18°C° 0.2 mm 2 m/S 745 mmHg 77%
09:00 +19°C° 0.2 mm 2 m/S 745 mmHg 73%
10:00 +19°C° 0.5 mm 3 m/S 745 mmHg 71%
11:00 +20°C° 0.5 mm 3 m/S 745 mmHg 68%
12:00 +20°C° 0.5 mm 4 m/S 745 mmHg 65%
13:00 +20°C° 0.2 mm 4 m/S 745 mmHg 65%
14:00 +20°C° 0.2 mm 4 m/S 745 mmHg 65%
15:00 +20°C° 0.2 mm 4 m/S 745 mmHg 65%
16:00 +20°C° 0.2 mm 4 m/S 745 mmHg 69%
17:00 +19°C° 0.2 mm 3 m/S 745 mmHg 73%
18:00 +18°C° 0.2 mm 3 m/S 745 mmHg 78%
19:00 +17°C° 0 mm 2 m/S 746 mmHg 81%
20:00 +15°C° 0 mm 2 m/S 746 mmHg 85%
21:00 +14°C° 0 mm 2 m/S 746 mmHg 89%
22:00 +14°C° 0 mm 2 m/S 746 mmHg 89%
23:00 +13°C° 0 mm 3 m/S 747 mmHg 88%
Mehr zeigen